Theta_e
305 305 305 305 305 306 306 307 306 306 307 307 306 306 306 305 305 304 304 304 303 302 302 302 302 303 303 303 303 303 303 304 305 306 307 308 309 309 309 309 308 308 308 307 307 306 305 304 303 302 301 300 299 299 298 298 297 297 296 295 295 294 294 292 291 289 289 289 289
305 305 305 303 303 304 305 306 305 305 307 308 307 306 306 305 305 304 303 303 302 302 302 303 302 302 303 302 302 303 303 303 304 304 306 307 309 309 309 309 308 308 308 307 307 306 306 304 304 302 301 300 300 299 298 298 298 297 296 295 295 295 294 293 291 290 289 289 289
306 306 305 305 304 305 305 306 306 306 307 307 307 306 306 305 304 304 304 303 302 302 302 303 302 302 302 303 302 303 303 303 303 304 304 306 308 308 308 308 308 307 307 307 307 306 306 305 303 302 301 300 300 299 299 298 298 297 296 295 296 295 295 293 291 290 290 290 289
306 306 306 305 305 304 305 306 306 306 306 306 306 305 305 305 305 304 303 302 301 301 301 302 301 301 301 302 302 303 303 302 303 303 304 305 306 307 307 308 307 307 307 307 306 306 306 305 304 303 301 301 300 299 299 299 298 297 297 296 296 295 294 293 292 291 290 289 288
306 306 306 306 305 305 305 305 305 306 306 306 305 305 305 305 305 304 303 302 302 301 301 300 301 301 301 301 302 302 302 302 301 302 303 304 305 306 306 307 307 307 307 306 306 306 305 305 304 303 302 301 301 300 299 299 298 297 297 296 296 295 294 293 291 290 289 289 288
305 305 305 306 305 305 306 306 306 307 306 306 305 305 304 304 304 304 303 302 301 300 299 299 299 299 299 299 301 301 302 303 302 303 303 303 304 304 305 306 306 306 306 305 305 305 304 304 304 303 302 301 301 300 300 298 298 297 297 296 295 294 294 293 291 290 289 288 287
305 304 304 305 305 306 307 307 307 307 306 306 305 304 304 304 303 303 302 302 301 300 299 299 299 299 299 298 299 301 301 302 303 303 303 303 303 304 304 304 305 305 305 305 305 304 304 304 303 302 301 300 300 299 299 298 298 297 296 295 294 293 293 292 291 290 289 288 286
303 303 304 304 305 306 307 307 307 307 306 306 305 304 303 302 302 301 301 301 301 300 299 299 298 298 298 298 299 299 300 301 302 302 303 303 303 303 304 304 304 304 305 305 304 304 303 303 303 302 301 299 299 299 298 297 297 297 296 295 293 293 292 291 290 289 288 287 286
303 303 303 303 305 305 306 305 306 306 306 305 304 303 303 302 301 301 301 301 300 299 299 299 298 298 298 298 298 298 299 300 301 302 302 303 303 303 303 304 304 304 304 304 303 303 303 303 302 302 301 300 299 299 298 297 297 296 295 294 293 292 291 290 289 288 287 286 285
303 303 303 303 304 305 305 305 305 305 305 304 302 302 301 299 300 300 300 300 299 299 298 298 297 297 297 298 298 298 299 299 301 301 302 302 302 303 303 303 303 303 304 304 303 303 303 302 302 301 300 300 299 299 298 297 296 296 295 294 293 291 290 289 288 288 287 286 285
302 302 303 304 303 304 304 305 305 305 304 303 302 302 301 299 300 300 300 299 299 298 298 297 297 297 297 298 298 298 298 299 300 301 301 302 302 302 303 303 303 303 303 303 303 303 303 302 301 300 300 299 299 298 297 296 296 295 294 294 292 290 289 288 288 287 287 286 285
302 302 303 303 302 303 304 305 305 305 304 304 302 302 302 301 301 300 299 298 298 298 297 297 297 298 298 298 298 298 298 298 298 299 300 301 301 302 302 302 302 303 303 303 303 303 302 302 301 300 299 298 298 297 296 296 295 295 294 292 291 290 289 288 287 287 286 286 285
302 302 302 302 301 302 303 304 305 305 304 303 303 302 302 302 301 299 298 298 297 297 297 297 297 298 298 299 299 299 299 298 298 298 299 300 300 300 301 301 302 302 302 302 302 302 302 301 300 299 298 297 297 297 296 295 295 294 293 291 290 289 288 287 287 287 286 285 285
302 302 302 302 301 301 303 304 304 304 304 303 303 303 302 302 300 299 299 298 297 296 296 296 296 297 298 298 298 298 297 297 298 298 298 298 299 299 300 300 300 301 301 301 301 301 301 300 299 298 297 296 296 295 295 294 295 294 292 290 289 289 288 287 286 286 286 285 285
301 301 301 302 301 302 303 304 304 304 303 303 303 303 302 301 300 299 299 298 296 295 295 295 296 296 296 295 296 296 296 296 297 297 297 297 298 298 299 299 299 300 300 300 300 300 300 299 298 297 296 295 295 295 294 294 294 293 292 291 289 289 288 287 286 286 285 285 285
301 301 301 301 301 302 302 303 303 303 303 303 303 302 302 301 299 298 297 297 295 294 294 294 295 294 294 292 293 294 294 295 295 296 296 296 296 297 297 297 298 298 298 298 298 298 298 298 297 296 296 295 294 294 293 293 293 293 292 291 290 289 288 287 286 286 285 285 285
301 301 301 301 301 301 302 302 303 303 303 302 302 302 301 300 299 297 295 295 294 293 292 293 294 293 293 291 292 293 293 294 294 294 295 295 295 295 296 296 297 297 297 297 297 297 297 297 296 296 295 294 294 293 293 293 293 292 291 290 290 289 288 287 286 286 285 285 285
301 301 301 301 301 301 301 302 302 302 302 302 301 301 300 299 297 295 294 293 292 291 291 291 291 292 292 291 292 292 293 293 293 293 294 294 294 295 295 296 296 296 296 297 297 296 296 296 295 294 294 294 293 293 293 292 292 291 291 290 289 289 288 287 286 286 285 285 285
300 300 300 301 301 300 301 300 301 301 301 301 301 300 299 298 295 293 292 291 290 290 289 289 290 290 291 291 291 292 292 292 292 293 293 293 294 294 294 295 295 295 296 296 296 296 295 295 294 293 293 293 292 292 292 291 291 291 290 289 288 288 287 286 286 286 286 285 285
300 300 300 301 301 300 300 300 300 300 301 301 300 299 298 295 293 292 291 290 289 289 289 289 289 289 290 290 290 291 291 292 292 292 292 292 292 293 293 294 294 294 294 295 295 295 294 294 293 292 292 292 291 291 290 290 290 289 289 288 288 287 287 286 286 285 285 285 285
300 300 300 300 300 300 300 300 299 300 300 299 298 298 296 294 292 292 291 290 289 289 289 289 289 289 289 289 290 290 291 291 291 291 291 292 291 292 292 293 293 293 294 294 294 294 293 292 292 291 291 291 290 290 289 289 289 288 288 287 287 287 286 286 285 285 285 285 285
300 300 300 300 299 299 299 299 299 298 298 298 298 297 295 293 292 291 291 289 289 289 289 289 289 289 289 289 290 290 290 291 291 291 291 291 291 291 292 292 292 292 292 293 293 292 292 291 291 290 290 290 290 289 289 288 288 287 287 286 286 286 286 285 285 285 285 285 284
299 299 299 299 298 298 297 297 297 298 298 297 297 295 294 292 291 291 291 290 290 290 290 289 289 289 289 290 290 290 290 290 290 290 290 290 290 290 291 291 291 291 291 292 292 291 291 290 289 289 289 289 289 288 288 288 287 287 286 286 285 285 285 285 285 285 284 284 284
299 299 299 299 297 296 296 296 297 297 297 296 296 294 292 290 290 290 291 291 290 290 290 290 290 290 289 290 290 290 289 289 289 289 289 289 289 290 290 290 290 290 291 291 291 291 291 290 289 289 289 289 288 288 287 287 287 286 286 285 285 284 284 284 284 284 284 284 284
297 297 297 297 296 295 296 296 296 296 296 295 293 291 289 288 288 288 288 288 289 289 289 289 289 289 289 289 289 288 288 289 289 289 288 288 289 289 289 289 290 290 291 291 291 291 291 290 290 289 288 288 288 287 287 287 286 286 285 285 284 284 283 283 283 283 283 283 283
296 295 295 295 294 294 294 295 295 294 294 293 292 290 289 287 287 287 287 287 288 288 288 288 288 288 288 289 288 288 288 289 289 288 288 288 288 288 289 289 289 290 290 289 291 291 292 292 291 289 288 288 287 287 286 286 286 285 285 284 284 283 283 282 282 282 282 282 282
294 293 292 291 290 291 291 292 292 292 291 291 290 289 288 287 287 287 287 287 287 287 287 288 288 288 288 288 288 288 288 288 288 288 288 288 287 287 288 289 289 289 289 288 290 292 292 293 292 290 288 287 287 287 286 285 285 285 285 284 284 283 283 282 282 282 282 281 281
292 291 291 290 289 289 290 291 291 290 290 290 289 288 288 287 287 287 287 287 287 287 287 288 288 288 288 288 288 287 287 288 288 288 287 287 287 287 288 288 288 288 288 290 291 292 292 293 292 291 289 286 286 286 286 285 285 284 284 284 283 283 283 283 282 282 281 280 280
292 291 290 289 289 289 289 290 290 289 289 289 289 288 287 287 287 287 287 287 287 288 288 289 288 288 288 288 288 287 287 287 287 287 287 287 287 287 287 288 288 288 289 291 291 292 292 292 293 292 290 288 287 286 286 285 284 284 284 283 283 283 283 283 282 281 281 280 280
291 290 289 289 289 289 289 289 289 288 288 288 288 288 287 287 287 287 287 287 287 288 289 289 289 288 288 288 287 287 287 287 287 287 287 286 286 286 287 287 287 288 289 291 291 292 292 292 292 292 291 290 287 286 286 285 284 284 284 283 283 283 283 282 282 281 280 280 279
290 289 288 288 289 289 289 289 288 288 288 288 288 287 287 287 287 287 288 288 288 289 289 289 288 288 288 288 287 287 287 287 287 286 286 286 286 286 286 287 287 287 288 290 291 291 292 292 292 292 292 291 287 286 286 285 284 284 283 283 283 282 282 282 281 280 280 280 279
289 288 288 288 288 288 288 288 288 288 288 288 288 287 287 288 288 289 289 289 289 289 289 288 288 287 287 287 287 287 286 286 286 286 286 286 286 286 286 286 286 286 288 290 291 291 292 292 292 292 292 291 287 286 285 285 284 284 284 283 282 282 282 282 281 280 280 280 280
288 288 288 288 288 288 288 288 288 288 288 288 287 287 287 289 289 289 289 289 288 288 288 288 287 287 287 287 286 286 286 286 286 286 286 286 286 286 286 286 286 286 288 290 290 291 291 292 292 292 292 291 288 286 285 285 284 284 283 283 282 282 281 281 281 280 280 280 280
289 288 288 288 288 288 288 287 287 288 288 287 287 287 288 289 289 289 288 288 288 288 288 288 288 287 287 287 287 286 286 286 286 286 286 286 286 285 285 286 286 287 289 290 290 291 291 292 292 292 292 289 287 285 285 284 284 283 283 282 281 281 281 281 280 280 280 280 280
289 288 288 288 288 288 288 287 287 287 287 287 287 288 289 289 289 288 288 288 287 288 288 288 288 287 287 287 287 286 286 286 285 285 285 285 285 285 285 285 285 287 289 289 290 291 291 291 291 292 292 289 286 285 284 284 283 283 282 281 281 281 280 280 280 280 280 280 280
288 288 288 288 288 288 287 287 287 287 287 287 287 288 289 289 289 288 288 287 287 287 287 287 287 287 286 286 286 286 286 285 285 285 285 285 285 285 285 285 284 286 288 289 290 290 291 291 291 292 291 290 286 284 284 283 282 282 281 280 280 280 280 280 280 280 280 280 280
288 288 288 288 288 288 287 287 287 287 287 287 288 289 289 289 288 288 287 287 286 286 286 286 286 286 285 285 285 285 285 285 285 285 285 285 285 285 284 284 284 285 287 289 289 290 290 291 291 292 291 289 285 283 283 283 282 281 280 280 280 279 280 279 280 279 279 279 279
288 288 288 288 288 288 287 287 287 287 287 288 289 289 289 288 288 287 287 286 286 286 286 285 285 285 285 285 285 285 285 285 285 285 285 285 285 284 284 284 284 284 286 288 289 290 290 290 291 291 290 287 284 282 282 282 281 280 280 279 279 279 279 280 279 279 279 279 279
287 287 287 288 288 287 287 287 287 287 288 289 289 289 288 288 288 287 286 286 286 286 286 285 285 285 285 285 285 285 285 285 285 285 285 285 285 285 284 284 283 283 285 287 289 289 290 290 291 291 290 286 283 282 282 282 280 280 279 279 279 279 279 279 279 279 279 279 280
287 287 287 287 287 287 287 287 288 288 288 289 289 289 288 288 287 287 286 285 286 286 286 285 285 285 285 284 284 284 284 284 284 284 285 285 285 284 284 284 283 283 284 286 288 289 289 290 290 291 289 284 283 282 282 281 280 279 279 279 279 279 278 279 279 279 279 279 279
286 286 286 287 287 287 287 287 288 288 288 289 289 288 288 287 287 287 286 285 285 285 285 285 284 284 284 284 284 283 283 283 283 284 284 284 284 284 284 284 283 283 283 285 287 288 289 290 290 291 289 284 283 282 282 281 280 279 279 279 279 278 278 278 279 279 279 279 279
Wind_Speed
7 7 7 6 6 6 6 5 5 5 5 6 6 6 6 6 7 6 6 6 6 6 5 5 5 5 5 6 7 7 7 7 7 9 10 13 13 13 14 13 14 14 14 13 13 13 13 14 12 10 9 9 10 11 11 10 11 12 12 12 11 11 12 12 11 11 12 12 9
8 8 7 6 6 5 5 5 4 5 5 6 6 6 6 6 6 7 7 7 6 6 5 5 6 6 7 8 8 7 7 7 7 7 9 11 12 13 13 13 13 14 14 14 13 12 12 13 12 10 9 8 10 10 11 10 11 12 13 14 12 11 11 11 11 11 12 12 10
9 8 7 7 6 6 5 5 5 5 5 5 5 6 6 6 6 6 6 6 6 6 6 5 6 7 8 8 8 7 7 7 7 7 7 9 10 12 12 12 13 14 14 13 13 12 12 13 12 10 9 8 10 11 11 11 11 12 13 15 12 10 9 9 9 10 9 9 9
9 8 8 8 8 7 7 5 5 5 5 5 4 5 6 6 5 5 5 6 6 6 6 6 6 7 8 8 8 8 8 7 7 7 7 7 9 10 11 12 13 13 13 13 13 13 13 13 10 9 9 10 11 11 11 10 12 12 12 13 11 10 9 8 8 8 7 8 9
9 9 8 8 8 8 7 5 5 5 5 4 4 5 5 5 5 5 5 6 7 7 7 7 7 7 7 8 9 9 9 9 8 7 7 7 8 8 10 11 12 13 13 13 13 13 13 13 10 8 8 10 10 10 11 11 12 12 11 9 8 8 8 7 7 7 7 7 7
8 8 8 7 8 7 7 6 6 6 5 4 5 6 6 5 5 6 6 7 7 7 8 8 7 7 7 8 9 10 10 10 9 8 8 8 7 7 8 10 11 12 12 12 13 13 13 13 9 8 8 8 9 10 11 12 12 12 10 8 7 7 7 7 7 7 7 7 8
8 8 8 8 8 8 7 6 6 6 5 5 7 8 8 7 7 7 7 7 6 7 8 8 8 8 8 9 9 10 10 10 10 10 10 9 8 8 8 9 10 11 12 12 13 12 12 12 9 8 7 7 7 9 11 11 12 11 10 8 7 6 7 8 7 7 8 10 11
7 8 8 8 8 8 8 8 7 6 6 6 7 8 9 8 8 8 8 7 7 7 7 7 9 10 10 10 10 10 10 11 11 11 11 10 10 9 9 9 9 10 11 12 12 12 12 10 9 8 8 7 7 8 10 11 12 11 10 9 7 6 6 6 6 7 9 11 12
7 7 7 7 8 8 8 8 8 7 7 7 8 8 8 8 8 8 8 7 7 7 7 8 10 11 11 11 11 11 11 11 12 12 12 11 11 11 10 9 10 10 11 11 12 13 12 10 8 8 8 7 7 8 9 11 12 12 10 9 7 7 6 6 7 8 10 11 12
8 7 8 7 8 8 8 8 8 8 9 8 8 8 8 8 8 8 8 7 6 7 8 9 10 11 12 12 12 11 11 11 11 12 12 12 12 12 12 10 11 11 10 10 11 12 12 10 9 9 9 8 9 9 10 11 12 12 10 7 7 8 8 7 8 9 10 11 12
8 8 8 8 8 8 8 9 9 9 9 9 9 9 8 8 8 8 7 6 7 8 9 9 10 11 12 12 11 11 11 10 10 11 12 12 13 13 13 12 12 12 11 11 11 11 11 10 10 10 10 9 10 10 10 11 12 12 11 8 9 10 10 9 10 10 11 11 12
9 8 8 8 8 9 9 10 9 9 9 9 9 9 9 9 9 8 7 7 9 9 9 9 11 12 12 11 11 11 10 10 10 11 11 12 13 13 13 13 13 12 12 12 11 11 10 11 11 11 12 11 9 9 10 12 12 12 12 10 10 11 12 12 11 10 10 11 12
9 9 8 8 8 9 10 10 9 9 9 10 10 9 9 9 9 9 9 9 9 9 8 9 10 11 11 11 11 11 11 11 11 11 11 11 12 12 13 13 13 12 12 11 11 11 11 11 12 12 12 12 10 10 11 13 13 13 13 12 12 13 13 13 13 12 11 11 12
10 10 9 9 9 9 10 10 9 9 9 10 10 9 8 8 9 9 9 10 9 8 8 8 9 10 10 10 10 10 11 11 11 11 11 11 11 11 12 12 12 12 11 10 10 11 11 11 12 12 13 13 12 11 12 13 14 14 14 14 15 15 15 14 14 13 12 13 13
11 11 10 10 10 10 10 11 9 9 9 10 10 9 8 8 8 9 9 10 9 8 8 8 8 8 8 9 9 10 10 11 11 11 11 11 11 11 11 11 11 11 10 9 10 10 11 11 11 12 12 13 13 12 12 13 14 14 14 15 16 16 15 15 14 14 14 15 14
11 11 11 11 11 10 10 11 9 9 9 10 9 9 8 8 8 8 9 9 9 8 8 9 8 8 7 7 8 9 9 10 10 11 11 11 11 11 11 11 10 10 10 10 10 10 10 10 10 11 12 13 13 13 13 14 14 14 14 14 15 15 15 15 14 14 14 15 15
12 12 12 12 12 12 11 11 9 9 9 9 9 9 9 8 7 8 8 9 8 8 8 9 9 8 7 7 7 7 8 9 9 10 10 10 11 11 11 11 11 11 10 10 10 10 10 9 9 10 11 12 12 13 13 14 13 13 14 14 14 14 14 14 14 14 14 15 15
12 12 12 12 13 13 12 11 10 9 9 9 9 9 9 8 8 8 8 8 9 9 10 10 9 8 8 8 7 7 8 8 9 9 10 10 10 11 11 11 11 11 11 11 11 11 11 10 9 9 10 11 11 12 12 13 13 13 13 13 13 13 13 13 13 13 13 14 15
13 13 13 13 13 13 12 12 11 10 9 9 9 9 9 9 8 8 8 8 9 10 11 10 9 9 9 9 9 8 8 8 9 10 10 10 10 10 11 11 11 11 11 11 11 11 10 10 9 9 10 10 10 10 11 11 11 11 11 11 11 11 11 12 12 12 12 13 13
13 13 13 13 13 12 12 11 11 10 9 8 9 9 9 9 9 9 9 9 9 10 11 11 10 9 9 9 9 9 8 8 9 10 10 10 10 10 11 11 10 10 11 11 11 10 10 9 9 9 10 10 10 10 10 10 10 10 10 10 10 10 11 11 11 11 11 12 12
13 13 13 12 12 11 11 10 10 9 9 8 9 10 9 9 9 10 10 10 9 9 10 11 10 10 10 9 10 9 9 8 9 10 10 10 10 10 10 10 10 10 10 10 10 9 9 8 8 9 9 9 10 10 10 10 9 9 9 8 9 9 10 10 11 11 11 12 12
12 11 11 11 11 10 10 9 9 9 9 9 9 9 9 9 10 10 10 10 10 10 10 10 10 11 11 10 11 10 9 8 9 9 9 9 9 9 9 9 9 9 9 9 9 8 8 8 8 8 9 9 10 10 10 10 10 9 9 9 9 9 9 10 10 11 11 12 12
10 10 10 10 10 9 9 8 8 9 9 9 9 9 9 9 9 10 10 10 10 11 10 10 10 10 11 11 11 10 10 9 9 8 8 8 8 9 9 8 9 9 10 9 8 8 8 7 8 8 9 9 9 10 10 10 10 10 10 10 10 9 9 10 10 10 11 11 11
10 9 9 8 8 8 8 8 8 9 10 10 9 9 9 9 9 9 10 10 11 11 10 9 9 9 10 10 10 10 10 10 10 9 9 8 9 9 9 8 9 9 9 8 8 8 8 7 7 8 8 8 9 9 9 10 10 10 10 11 10 10 10 10 10 10 11 11 11
9 9 8 8 8 8 8 9 9 10 10 10 9 9 9 9 9 9 10 10 11 11 10 9 9 9 9 9 9 9 10 11 11 10 10 9 9 9 9 8 9 8 8 8 10 11 11 9 8 8 8 8 8 8 8 9 10 10 10 11 11 10 10 10 10 10 11 11 11
9 9 9 9 9 9 9 10 10 10 10 9 9 9 9 9 9 10 10 10 10 10 10 10 9 9 8 8 9 9 10 10 10 10 10 10 10 10 9 9 8 8 7 8 11 13 14 14 12 10 8 8 8 8 8 8 9 10 10 10 11 11 11 11 11 11 11 10 11
8 9 9 9 9 9 10 10 9 9 9 10 10 10 10 10 10 10 11 11 10 10 9 9 9 8 8 8 9 10 10 10 10 10 10 11 11 11 11 10 8 7 7 9 13 15 17 17 16 13 10 8 8 8 8 8 9 9 10 10 10 11 11 12 12 12 11 10 10
9 9 9 9 10 10 10 9 9 9 10 10 11 11 10 10 11 11 11 11 10 9 8 8 8 7 7 7 9 10 11 10 10 10 10 10 11 11 11 10 9 8 9 12 15 17 18 18 18 17 14 9 8 8 9 8 9 9 9 9 10 11 12 12 12 12 12 11 10
10 10 10 10 11 11 10 10 10 10 10 10 10 10 11 11 12 12 11 11 10 10 9 7 6 6 6 8 9 10 10 11 10 9 9 10 11 11 11 11 9 10 12 15 17 18 19 19 19 18 17 13 9 7 7 8 8 8 8 9 9 10 11 11 10 11 11 11 11
10 10 10 11 11 11 11 11 11 10 10 9 10 11 11 12 12 12 12 12 12 11 10 8 8 8 9 9 9 9 10 10 9 9 10 10 11 11 11 11 10 10 12 17 18 19 19 20 20 19 19 17 11 8 7 7 8 8 8 8 9 11 11 11 11 11 11 11 11
10 10 11 11 12 12 11 11 10 10 10 10 10 11 12 12 13 13 13 13 12 11 10 9 10 10 11 10 9 9 10 10 9 10 10 11 11 11 12 12 11 11 13 17 19 19 20 20 20 20 20 20 13 9 8 8 9 9 9 9 10 11 11 11 11 12 12 12 12
10 10 11 12 12 12 11 10 10 10 11 11 12 12 12 13 13 13 12 12 11 11 11 11 11 11 11 10 10 10 10 10 10 10 10 11 11 12 12 11 11 11 13 18 19 20 20 20 20 20 20 21 13 10 9 9 9 9 9 10 11 12 12 11 11 12 13 14 13
10 11 12 12 12 12 11 10 10 11 11 12 12 13 13 13 12 11 11 10 10 11 12 12 12 12 12 11 11 11 11 11 11 11 11 11 11 12 11 11 10 11 13 18 19 20 20 21 21 21 21 21 14 11 10 9 9 8 9 9 10 11 12 12 12 12 14 14 13
11 12 12 13 12 11 10 10 10 11 11 12 12 12 13 12 11 11 10 9 9 9 10 11 12 12 12 12 11 11 11 10 10 11 11 11 11 12 11 10 8 10 15 19 20 20 21 21 21 21 20 18 12 10 10 10 9 8 8 9 9 10 11 11 12 12 13 13 12
12 12 12 12 11 10 10 10 10 11 11 12 12 12 12 12 12 11 10 8 8 8 9 9 9 9 10 10 11 11 11 10 10 11 11 11 11 12 12 11 9 11 16 19 20 21 21 21 21 21 20 16 11 9 9 10 9 9 9 9 9 10 10 10 10 11 12 12 12
11 12 12 11 10 10 10 10 11 11 12 12 12 12 12 12 11 10 9 8 8 8 8 8 8 8 9 8 9 9 10 10 11 11 11 11 11 12 12 11 10 12 16 19 20 20 21 21 21 21 20 14 9 8 9 9 8 9 9 9 10 10 10 10 10 10 10 11 11
10 11 11 10 10 10 10 10 11 11 12 13 13 12 12 11 10 9 8 8 9 9 9 8 8 9 9 9 9 8 9 10 11 11 11 11 12 12 12 11 10 12 15 19 20 20 20 21 21 21 18 12 9 8 8 8 7 7 8 9 9 10 10 9 9 9 10 11 11
9 9 9 10 10 10 10 10 11 12 13 13 12 11 11 10 9 8 8 9 9 10 10 9 9 9 10 10 9 9 10 10 11 11 11 12 12 12 12 11 10 11 13 17 19 20 20 21 21 21 17 10 9 9 8 7 7 7 8 8 8 9 9 8 8 9 10 11 12
7 7 8 9 9 9 10 11 12 13 13 13 11 10 9 9 8 8 8 8 9 9 10 9 10 9 9 9 9 9 9 10 10 11 11 11 11 11 11 11 10 10 11 16 19 20 20 20 21 21 17 9 9 9 8 7 7 8 8 8 8 8 8 8 7 8 9 11 13
6 6 7 8 9 9 10 11 12 13 12 12 11 11 10 9 8 7 7 7 8 8 8 9 9 9 8 8 8 9 9 9 10 10 11 11 11 11 11 10 10 9 11 15 18 20 20 20 21 21 18 9 9 9 8 8 8 8 8 8 8 8 8 8 7 8 9 11 12
5 6 7 8 8 9 10 12 12 11 11 10 11 10 9 8 7 7 7 7 7 7 7 7 8 8 8 8 8 8 9 9 9 10 10 10 10 10 10 10 9 9 10 13 17 19 20 20 21 22 19 10 9 9 8 8 8 9 9 9 8 8 8 8 7 7 8 10 10
Wind_Direction
185 188 191 195 198 201 204 207 204 199 194 190 191 191 190 189 191 192 193 194 195 195 196 196 197 196 194 194 198 205 210 212 207 201 196 194 193 191 188 186 186 185 185 186 185 185 186 187 188 189 191 191 193 195 196 196 196 196 197 199 201 201 199 195 194 192 189 188 188
189 190 191 193 196 200 204 208 205 201 197 192 190 188 188 188 189 190 191 193 192 191 191 195 196 197 197 198 199 203 208 212 212 208 202 198 195 192 189 188 187 187 186 185 185 185 187 188 188 189 191 191 192 194 196 196 194 195 198 199 201 201 200 198 196 192 190 189 187
192 192 193 194 197 200 204 208 205 202 198 192 188 188 189 191 191 190 190 190 187 186 189 194 196 197 198 199 201 204 207 210 212 211 208 204 198 194 191 189 189 188 187 186 186 186 187 188 189 190 190 190 192 193 195 195 194 196 198 200 201 200 199 199 194 189 188 189 187
195 195 196 199 200 201 203 205 203 201 198 190 186 188 192 195 194 192 188 183 184 186 190 191 192 195 198 200 202 205 207 209 212 213 213 210 203 197 194 191 189 189 189 188 188 188 188 188 190 191 192 191 193 194 194 193 194 196 199 200 199 199 197 195 189 185 185 188 187
200 200 201 202 203 204 205 203 200 199 197 188 186 190 196 198 197 193 188 185 188 189 188 186 188 193 197 199 202 204 207 208 211 213 215 214 209 203 198 193 192 191 190 190 189 189 188 188 190 192 194 193 194 196 195 192 194 197 199 199 198 196 193 189 185 183 183 185 186
203 205 206 206 206 207 208 205 199 196 194 190 190 194 197 199 198 196 194 192 189 186 183 182 186 190 194 197 201 204 206 208 210 212 215 216 214 209 203 199 195 193 192 192 191 190 189 188 190 193 195 195 198 198 196 192 195 197 198 197 196 192 188 185 182 180 179 181 183
201 203 205 207 206 207 209 206 199 195 193 194 196 198 199 198 198 198 196 191 185 182 181 181 184 187 190 195 200 204 206 208 209 211 213 215 214 211 208 204 199 196 195 193 192 192 191 190 191 193 194 194 198 199 197 193 195 196 196 196 193 188 184 183 179 176 177 179 180
198 200 203 204 204 205 206 203 197 195 196 200 201 200 199 196 197 196 194 189 186 183 182 182 184 185 188 193 198 202 205 207 209 210 211 213 213 212 210 206 203 200 197 194 193 193 193 192 193 193 193 193 197 198 196 193 194 195 194 192 189 186 182 179 175 175 177 178 179
198 199 200 200 201 201 200 198 196 196 199 203 202 199 196 194 193 192 192 192 188 184 182 184 184 185 187 192 196 200 203 206 208 210 211 211 211 211 210 208 205 203 200 196 195 194 193 194 195 195 193 192 194 196 194 192 193 193 192 189 185 184 181 177 175 176 177 176 178
198 198 197 198 199 197 195 195 196 198 199 202 199 195 192 190 190 191 192 192 186 185 186 186 184 185 188 192 195 198 201 204 207 209 209 210 210 210 210 208 206 204 202 198 196 194 194 195 197 196 194 193 193 192 191 190 191 190 189 187 183 181 180 179 177 177 178 178 180
197 197 197 198 195 192 191 193 197 199 200 201 198 195 191 188 189 190 189 185 186 189 190 186 183 185 188 192 195 198 200 202 205 207 208 209 210 210 209 209 207 205 203 199 197 195 195 197 198 196 193 192 190 189 188 188 189 188 187 186 181 181 182 183 180 179 179 179 180
199 200 199 198 193 190 191 194 198 201 202 203 201 197 194 191 188 185 183 183 188 190 190 186 185 186 189 192 194 196 198 201 204 206 208 209 210 210 210 210 208 207 204 201 197 196 197 199 197 194 191 189 188 187 187 187 188 187 186 184 182 183 184 184 183 182 180 178 179
202 202 202 200 194 192 194 198 200 202 203 204 202 200 197 194 188 183 181 184 188 189 188 188 189 189 191 193 194 195 197 200 202 205 207 208 209 209 209 210 209 208 205 202 199 198 198 199 197 193 190 188 188 187 186 186 187 187 186 184 184 186 187 185 184 181 179 176 179
204 205 205 202 197 196 198 201 203 204 204 204 203 201 199 195 189 184 183 185 186 185 185 188 192 193 193 192 192 193 194 197 200 203 205 207 207 207 208 209 208 207 206 203 201 200 200 200 197 193 190 188 188 187 186 186 188 187 186 184 186 188 188 186 183 180 177 177 179
207 207 207 203 200 200 202 204 205 205 204 204 203 200 197 196 191 187 185 185 184 182 183 186 192 195 195 192 192 192 193 195 197 200 203 205 205 205 206 207 207 206 205 203 202 203 202 201 197 193 190 189 188 187 186 187 189 189 188 187 188 188 188 185 183 180 179 179 179
209 209 208 206 205 205 205 206 206 205 204 204 201 198 196 195 190 187 185 183 181 180 182 187 190 192 193 193 192 192 193 195 197 199 200 202 202 203 204 205 205 205 204 203 203 204 204 202 197 193 191 190 189 188 187 189 190 191 190 190 190 189 187 184 183 182 181 180 180
211 210 209 208 209 209 208 207 207 206 204 202 198 196 194 192 187 186 184 181 178 179 183 188 188 188 189 193 193 193 194 196 197 199 199 200 200 201 203 205 205 204 203 202 202 204 204 203 198 194 192 191 190 189 189 189 191 191 191 191 190 189 187 184 183 183 182 180 182
212 212 211 211 211 211 210 208 208 206 203 200 197 195 192 188 183 183 183 180 176 177 181 187 187 187 188 190 193 194 195 197 199 200 200 200 200 201 203 205 205 204 203 203 203 203 202 201 196 193 192 192 191 191 190 190 192 192 191 190 190 189 187 184 183 182 181 182 183
213 212 212 213 213 212 211 209 207 205 202 198 196 194 190 185 179 178 179 181 178 177 178 183 187 188 189 190 193 195 197 197 199 201 202 202 202 203 204 206 205 205 206 206 206 204 202 199 194 192 191 192 192 191 191 191 192 191 190 188 188 187 185 183 183 182 181 182 182
213 213 213 213 213 213 212 209 207 204 201 197 194 192 188 181 175 175 178 181 180 178 178 182 186 189 191 191 194 196 198 199 200 202 204 204 204 205 206 207 207 207 208 209 208 206 202 198 194 191 190 190 190 190 190 191 190 189 188 186 186 185 183 181 181 181 181 182 180
215 214 214 214 213 213 212 209 206 202 199 196 193 190 185 178 176 178 179 179 178 179 181 184 186 189 191 192 195 198 200 201 201 204 205 205 206 207 208 207 208 209 210 211 210 206 202 197 192 190 189 188 188 188 187 187 187 187 185 185 185 184 182 179 179 180 181 181 180
216 215 214 214 213 212 210 207 203 200 197 195 192 188 183 178 180 180 179 175 176 180 184 187 189 190 191 193 196 198 200 202 203 205 206 206 207 208 208 207 208 209 210 211 209 205 199 194 191 189 188 188 189 188 186 185 184 184 183 183 183 182 181 180 180 181 181 181 181
216 215 214 214 213 210 207 204 199 196 195 194 190 186 182 179 181 180 178 177 180 184 187 189 191 193 195 197 198 199 201 203 205 206 206 206 207 207 207 206 207 208 209 208 205 200 195 191 190 189 188 188 189 188 186 185 184 183 182 182 181 181 181 182 182 182 182 182 182
215 214 214 214 211 208 205 201 197 196 194 193 189 184 180 178 180 180 181 183 186 188 189 191 193 195 198 200 201 201 201 203 204 205 205 206 206 206 205 205 207 208 209 208 203 197 192 188 188 188 189 189 189 188 187 186 185 183 182 181 181 181 182 184 184 184 184 184 184
213 212 211 211 208 206 203 200 198 196 193 190 185 180 177 177 179 181 184 187 189 190 190 190 192 193 196 200 202 203 203 203 203 202 202 204 205 204 204 205 207 208 209 208 203 198 194 190 188 187 187 188 187 186 186 187 186 184 182 181 180 180 181 184 185 186 186 186 186
210 210 210 209 205 203 202 201 198 194 190 186 181 179 178 178 180 183 186 189 191 191 190 189 190 191 193 197 201 204 205 206 204 202 201 201 203 203 204 205 207 208 207 205 202 200 198 195 191 186 182 184 183 183 184 187 186 185 183 182 181 180 181 183 186 188 189 189 188
207 208 208 206 202 202 203 201 196 191 187 184 181 180 179 178 181 185 188 191 191 190 189 189 189 189 191 195 200 203 205 206 205 203 202 201 201 202 204 206 206 206 205 202 202 201 200 199 194 189 183 180 181 182 183 185 184 183 183 183 183 182 183 184 185 186 187 188 188
207 205 204 201 202 203 203 198 193 190 188 184 182 180 178 178 182 186 189 190 188 188 188 191 190 189 191 198 202 204 205 205 204 204 203 202 202 202 203 205 205 205 203 202 203 203 203 202 198 192 185 178 179 181 181 180 180 181 183 184 185 185 185 186 185 184 184 184 184
206 202 200 199 203 204 202 196 194 191 187 183 181 179 179 181 184 187 188 188 186 187 189 191 189 190 196 203 205 205 206 206 205 204 203 204 204 205 206 206 205 205 205 204 204 205 204 204 201 195 189 181 179 179 179 178 178 180 183 185 186 187 187 186 184 182 181 180 180
204 200 198 200 203 203 201 198 194 189 184 181 180 180 181 184 187 189 189 188 188 189 189 186 187 193 199 203 202 204 206 208 206 204 203 204 205 206 207 206 206 206 205 205 205 206 206 205 203 198 192 185 181 179 179 179 179 181 184 186 187 187 186 185 182 181 179 178 177
202 199 200 202 203 203 201 197 191 185 181 179 180 182 185 188 191 192 192 190 191 189 187 183 188 194 199 200 200 203 205 207 205 205 204 205 206 207 207 207 206 206 206 206 207 207 207 206 205 201 195 188 184 181 181 181 182 183 186 187 186 186 184 183 181 180 178 176 175
201 200 201 203 205 204 200 193 187 183 180 180 182 185 189 193 195 195 194 192 190 188 186 186 190 195 198 200 201 203 205 205 205 205 205 205 206 207 207 208 206 206 206 206 207 208 207 207 206 203 198 190 185 182 182 181 184 187 188 187 185 184 183 181 181 180 178 176 175
203 202 203 204 205 202 196 189 185 182 182 182 185 188 191 195 196 196 195 193 190 188 188 189 191 194 197 199 201 203 205 205 205 205 205 205 206 207 208 208 207 206 206 207 208 208 208 208 206 204 200 192 187 183 182 181 184 187 188 187 185 184 183 181 180 180 179 177 176
205 204 204 206 204 199 193 186 184 183 183 185 188 190 192 194 195 195 195 194 192 192 192 192 193 195 197 198 200 202 204 205 205 205 206 206 207 208 208 209 208 207 206 207 209 209 209 208 207 205 201 192 184 180 181 181 183 185 185 183 183 183 182 181 180 179 178 176 175
205 205 206 206 202 196 190 185 184 184 186 189 192 193 194 194 194 194 194 191 191 194 196 197 195 196 198 201 201 202 202 203 204 205 205 206 207 208 209 210 209 207 206 208 209 209 209 208 207 205 201 192 181 177 179 180 183 184 182 178 179 179 180 179 178 176 175 175 173
206 205 205 205 200 194 188 185 185 186 189 193 195 195 196 196 196 194 190 185 187 192 197 198 196 198 200 203 203 202 202 202 203 204 205 205 206 208 210 210 209 207 207 207 208 209 208 208 207 205 201 191 178 173 176 179 181 180 178 175 176 177 176 175 175 174 174 174 173
207 205 204 202 197 193 189 186 186 190 194 197 197 197 196 197 196 193 187 181 186 192 195 195 195 197 200 201 202 202 203 201 202 204 205 206 206 208 210 210 209 207 207 207 208 208 208 207 206 204 200 186 173 170 174 175 175 175 174 174 175 175 173 172 172 172 173 174 174
207 204 202 200 196 193 190 188 190 194 198 200 199 198 197 195 195 192 187 183 188 192 194 194 196 198 199 198 201 202 203 202 203 204 205 206 207 207 208 209 208 207 207 207 208 207 207 206 205 203 198 178 168 168 171 171 171 171 173 174 173 173 172 171 171 173 175 177 176
206 203 201 200 197 194 192 192 196 199 201 201 200 198 197 195 195 192 189 188 191 192 193 194 196 197 197 196 199 202 204 205 205 205 206 208 207 207 206 207 206 205 206 207 207 207 206 205 205 202 196 170 165 167 170 169 169 170 171 171 170 170 171 171 171 173 176 179 177
200 200 201 202 200 197 196 198 202 203 202 200 199 198 197 196 195 192 189 190 193 194 194 194 195 194 193 193 198 202 205 206 207 207 208 209 208 206 205 206 204 203 204 206 207 207 206 204 205 201 193 166 166 168 169 168 169 171 172 172 170 170 172 174 173 174 176 178 178
192 195 199 204 203 202 202 204 206 205 203 201 200 199 196 193 192 188 187 190 194 194 193 193 192 191 190 192 198 202 205 207 208 208 208 208 207 206 205 204 202 201 202 206 207 207 206 204 206 201 192 166 168 169 170 169 171 174 176 175 172 170 171 173 173 174 175 177 178